User: anonymous   Login
Location: Ç?ral? Körfezi
(36.3984°N, 30.4829°E)
Time: 01:43:27
(UTC+00:00)
Language:

SeaSat 1 - Orbit

View from above orbital plane
View from above orbital plane
View from above satellite
View from above satellite

Ground track
Ground track

The orbit data is extracted from the following two-line orbital elements,

1 10967U 78064A   24287.84433931  .00001287  00000-0  40474-3 0  9996
2 10967 108.0037 132.2857 0001812 247.9402 112.1550 14.45297339432845
Epoch (UTC): 13 October 2024 20:15:50
Eccentricity: 0.0001812
inclination: 108.0037°
perigee height: 740 km
apogee height: 742 km
right ascension of ascending node: 132.2857°
argument of perigee: 247.9402°
revolutions per day: 14.45297339
mean anomaly at epoch: 112.1550°
orbit number at epoch: 43284

The dashed part of the orbit path shows where the satellite is in the earth's shadow,  

DLR